Погода в Нафплионе

Греция     37°34′14″N   22°48′39″E
темп.,
°C
ветер,
м/с
пор.,
м/с
влажн.,
%
обл.,
%
осадки,
мм/ч
давл.,
гПа
погр.,
м
14 июня, пн
пн1400:00+21з22676 0.0 101339
03:00+20зсз336520 0.0 101281
06:00+19сз33679 0.0 1012132
09:00+21ссз44561 0.0 1013672
12:00+24ссв224019 0.0 10131298
15:00+21ююв4460100 0.1 1013702
18:00+20ююв346454 0.3 1012793
21:00+19ююв2364100 0.3 1013526
15 июня, вт
вт1500:00+18зюз116549 0.0 1014137
03:00+18сз226787 0.6 101366
06:00+18сз236391 0.1 1013128
09:00+18ссз455824 0.1 1014766
12:00+22с544425 0.0 10141642
15:00+22ссв454344 0.0 10151776
18:00+23ссв554216 0.0 10141688
21:00+20с124996 0.0 1015280
16 июня, ср
ср1600:00+18з2255100 0.0 101564
03:00+17з235853 0.0 101573
06:00+17зсз236037 0.0 101577
09:00+22ссз22420 0.0 1015422
12:00+25вюв32350 0.0 10151268
15:00+25юв64380 0.0 1015831
18:00+24юв444412 0.0 1015539
21:00+22вюв11605 0.0 101514
17 июня, чт
чт1700:00+21зсз22580 0.0 101640
03:00+20зсз22579 0.0 101657
06:00+19з22592 0.0 101651
09:00+24св11450 0.0 1017361
12:00+25юв32421 0.0 1017871
15:00+26юв54450 0.0 1017759
18:00+25вюв345217 0.0 1017528
21:00+22зсз11620 0.0 101714
18 июня, пт
пт1800:00+21зсз22580 0.0 101724
03:00+21зсз22580 0.0 101635
06:00+21зсз22590 0.0 101643
09:00+26ссз12460 0.0 1016326
12:00+29юв22350 0.0 10151372
15:00+27юв544420 0.0 1014923
18:00+25в225456 0.0 1015182
21:00+23з11634 0.0 101427